Regional Weather Roundup
Issued by NWS Midland/Odessa, TX

Skip options and go directly to product.
Home | Oldest Version | Previous Version | Current Version | All | Text Only | Save Text | Print | Product List | Glossary Off

Skip product version selection by date and time.   

454
ASUS44 KMAF 022210
RWRMAF
MIDLAND AREA WEATHER ROUNDUP
NATIONAL WEATHER SERVICE MIDLAND TX
500 PM CDT SUN AUG 02 2015

...IN SOUTHWEST TEXAS AND SOUTHEAST NEW MEXICO...

CITY           SKY/WX    TMP DP  RH WIND       PRES   REMARKS
ALPINE         MOSUNNY   85  60  41 NW3       30.09F
ANDREWS        FAIR      96  55  25 S8        29.93F
ARTESIA        CLOUDY    95  54  24 CALM      29.96F
BIG SPRING     MOSUNNY   95  56  27 S8G16     29.93F
CARLSBAD       PTSUNNY   96  57  27 S26G32    29.93F
DRYDEN           N/A    101  59  24 SE12      29.88F HX 101
FORT STOCKTON  PTSUNNY   99  55  23 SE8G22    29.92F
GUAD PASS      PTSUNNY   81  55  40 S5        30.13S HAZE
HOBBS          MOSUNNY   93  57  29 S9        29.95F
MARFA          MOSUNNY   90  54  29 SE9       30.08F
MIDLAND AIRPK  MOSUNNY  101  52  19 SE9G17    29.92F
MIDLAND INTL   SUNNY     99  55  23 SE12G23   29.91F
ODESSA         MOSUNNY   99  52  20 SE16      29.92F
PECOS          SUNNY    103  49  16 S10G17    29.87F
PRESIDIO       FAIR     101  55  21 SE8       29.88F
SEMINOLE       MOSUNNY   90  57  31 SE9       29.97S
SNYDER         MOSUNNY   96  62  32 SE13      29.93F
WINK           MOSUNNY   99  53  21 E6G18     29.88F
$$
...OTHER STATIONS IN TEXAS...

CITY           SKY/WX    TMP DP  RH WIND       PRES   REMARKS
ABILENE        SUNNY     95  60  31 SE14G21   29.92F
AMARILLO       MOSUNNY   89  65  44 S9        29.97F
AUSTIN         MOSUNNY   97  57  26 E8        29.86F
BROWNSVILLE    PTSUNNY   89  71  55 E13       29.87F
CORPUS CHRISTI MOSUNNY   94  70  45 SE14      29.86F HX 100
DALLAS FTW     MOSUNNY   98  55  23 E8        29.88F
DEL RIO        SUNNY    101  61  26 E12       29.84F HX 102
EL PASO        MOSUNNY   94  54  25 S9        29.96F
HOUSTON INT    MOSUNNY   97  58  27 SE10      29.85F
LUBBOCK        MOSUNNY   94  63  35 S10       29.95F
SAN ANGELO     MOSUNNY   98  59  27 E8        29.90F
SAN ANTONIO    MOSUNNY   97  60  29 E12       29.88F
WACO           SUNNY     98  55  23 VRB3      29.88F
WICHITA FALLS  NOT AVBL
$$
...OTHER LOCATIONS IN NEW MEXICO...

CITY           SKY/WX    TMP DP  RH WIND       PRES   REMARKS
ALAMAGORDO     SUNNY     95  50  21 S3        29.99F
ALBUQUERQUE    CLOUDY    80  55  42 NW15      30.13R
CANNON AFB     MOSUNNY   90  56  31 W8        29.99F
CLOVIS         MOSUNNY   91  59  33 SE9       30.00F
HOLLOMAN AFB   MOSUNNY   96  51  21 VRB6      29.96F
ROSWELL        CLOUDY    86  59  39 N12       29.97F
RUIDOSO          N/A    N/A N/A N/A MISG        N/A
SANTA FE       CLOUDY    75  51  43 N15       30.17R THUNDER
TRUTH OR CONSE CLOUDY    83  56  39 NW6       30.08S
TUCUMCARI      SUNNY     91  59  33 VRB3      29.96F
$$

USA.gov is the U.S. government's official web portal to all federal, state and local government web resources and services.